Location: Peterborough
(44.3091°N, 78.3197°W)
Time: 05:29:05
(UTC-04:00)

Vanguard 3 - Pass Details

Date: 22 February 2024
Orbit: 510 x 3236 km, 33.3° (Epoch: 12 April)

Event Time Altitude Azimuth Distance (km) Brightness Sun altitude
Rises 22:10:41 0° 241° (WSW) 7,132 12.2 -44.9°
Reaches altitude 10° 22:15:38 10° 237° (WSW) 6,165 11.7 -45.6°
Enters shadow 22:27:42 40° 213° (SSW) 3,989 10.3 -47.2°
Maximum altitude 22:34:05 52° 169° (S) 3,333 - -48.0°
Drops below altitude 10° 22:47:27 10° 99° (E) 4,604 - -49.6°
Sets 22:50:32 0° 94° (E) 5,288 - -49.9°
